Torna al catalogo

STARLINK-3606

AttivoComunicazioniVLEO
NORAD 51807·PAYLOAD·🇺🇸 United States

Lanciato Feb 25, 2022 da Vandenberg Space Force Base

Loading…

Prossimi Passaggi (prossime 24 ore)

TLE

AggiornatoSource: CelesTrak SupGP

Epoca: Sep 14, 2026, 20:43 UTC

1 51807C 22017AR  26257.86368056 -.00028376  00000+0 -83841-3 0  2578
2 51807  53.1600 197.7191 0001370  96.3821 298.7839 15.34403489    11

Traccia STARLINK-3606 in tempo reale con AllMySat

Download on the App Store